Simultaneous Nadir Overpasses (SNOs) Predictions

Prediction of SNOs between TERRA and METOP-C Satellite Orbit:

Table of predicted SNOs for the next 14.0 days since TLE Epoch: 11/2/2024
Index Date (TERRA) Time (TERRA) Lat,Lon (TERRA) SZA (TERRA ) Date (METOP-C) Time (METOP-C) Lat,Lon (METOP-C) SZA (METOP-C ) Distance(km) Time Diff (sec)
1 11/02/2024 05:32:41 -66.75, -99.52 97.97 11/02/2024 05:32:17 -66.75, -99.52 97.96 0.14 24
2 11/02/2024 06:21:09 69.60, 71.47 84.65 11/02/2024 06:22:03 69.59, 71.45 84.64 0.91 54
3 11/04/2024 19:13:53 63.86,-127.31 80.24 11/04/2024 19:12:43 63.86,-127.30 80.28 0.19 70
4 11/04/2024 20:02:02 -68.01, 44.37 96.02 11/04/2024 20:02:10 -68.02, 44.42 96.01 2.40 8
5 11/07/2024 09:43:20 64.69, 15.93 81.76 11/07/2024 09:42:44 64.68, 15.89 81.77 2.09 36
6 11/07/2024 10:31:29 -68.81,-172.14 94.50 11/07/2024 10:32:11 -68.82,-172.10 94.51 1.67 42
7 11/09/2024 23:27:35 -51.02, -17.45 109.37 11/09/2024 23:26:22 -51.08, -17.92 109.12 33.83 73
8 11/10/2024 00:12:37 65.97, 159.65 83.65 11/10/2024 00:12:36 65.96, 159.61 83.65 2.10 1
9 11/10/2024 00:58:29 -77.17, -12.12 85.60 11/10/2024 00:59:43 -76.94, -11.09 85.79 36.29 74
10 11/12/2024 13:53:35 -63.71, 132.52 97.66 11/12/2024 13:52:53 -63.71, 132.53 97.64 0.57 42
11 11/12/2024 14:41:48 67.46, -56.27 85.72 11/12/2024 14:42:23 67.46, -56.27 85.71 0.31 35
12 11/15/2024 04:22:47 -64.97, -83.83 95.85 11/15/2024 04:22:43 -64.97, -83.85 95.85 0.64 4



Historial Predications of SNOs between TERRA and METOP-C
